Theta_e
337 339 338 335 335 336 332 333 332 327 327 329 329 332 336 336 331 329 327 327 322 321 320 320 320 321 321 323 327 326 320 326 319 323 330 332 334 336 322 317 319 330 325
337 338 338 338 331 336 333 332 335 330 326 327 336 336 336 333 327 323 329 327 321 321 320 322 328 325 318 318 318 316 316 316 317 318 318 317 323 323 322 322 318 326 330
336 338 338 338 337 329 333 328 334 334 328 326 330 334 332 327 322 324 324 323 322 321 319 321 327 326 326 324 320 317 317 317 317 318 317 321 326 327 328 331 332 331 330
332 334 338 338 338 330 334 328 330 335 333 328 326 330 333 330 322 323 327 331 323 321 319 316 316 323 328 330 323 324 325 326 323 318 328 331 330 335 336 336 334 332 330
320 327 334 337 337 337 325 334 329 333 335 330 327 333 331 330 323 323 334 334 332 325 321 314 312 318 324 329 324 326 329 328 329 323 332 336 335 336 336 335 333 332 331
316 315 320 333 336 338 336 331 333 332 333 333 331 325 323 327 326 335 336 335 332 326 326 317 312 314 318 326 325 327 329 328 329 327 329 336 336 335 334 333 333 331 330
315 316 314 326 335 337 337 336 333 334 332 332 332 326 322 325 331 336 338 336 331 330 329 322 310 312 317 321 324 328 329 329 330 330 326 331 334 333 332 330 328 326 321
316 317 313 317 326 335 337 335 336 333 334 333 332 333 333 325 333 334 338 337 333 333 331 323 309 311 316 319 324 327 328 327 329 330 326 326 330 328 323 322 320 317 311
315 315 315 314 315 327 332 335 335 336 331 334 334 333 327 331 335 334 337 338 338 335 333 318 308 310 314 319 324 326 326 327 326 326 327 329 326 325 325 322 316 315 319
315 315 314 313 311 318 331 334 334 336 334 334 333 333 330 336 336 335 331 336 337 336 331 312 308 311 314 317 322 323 326 329 328 328 328 329 327 326 323 317 325 327 326
315 315 314 314 313 315 317 330 334 335 336 334 334 334 334 337 337 335 326 334 335 335 323 308 308 313 323 325 322 323 326 329 329 329 328 328 327 314 315 323 326 325 325
314 314 314 314 313 313 317 323 332 335 336 334 334 333 337 337 336 335 326 334 333 328 314 308 309 322 329 325 322 325 327 328 328 329 328 327 315 318 323 326 324 324 324
314 314 314 314 314 314 313 320 327 334 335 335 334 334 336 337 336 334 326 327 323 314 310 310 323 324 326 323 321 324 327 327 327 326 325 322 320 320 323 325 322 323 322
315 315 314 314 314 314 313 314 326 329 333 334 335 334 335 334 335 334 326 320 315 312 314 318 325 326 323 322 318 325 327 327 325 325 322 319 323 325 324 324 321 322 321
312 313 314 315 315 315 315 314 315 326 331 333 335 335 335 334 334 334 325 317 312 317 322 319 325 320 322 319 323 324 325 325 324 323 322 319 324 324 323 323 320 322 318
313 313 314 316 315 315 315 315 316 323 328 330 333 335 332 333 335 334 326 317 311 317 320 323 319 318 321 319 324 323 324 323 324 323 319 318 323 323 323 323 322 322 320
315 314 315 316 316 316 316 316 316 315 327 330 329 331 329 324 328 334 330 319 312 318 321 322 316 315 317 324 323 324 323 323 323 322 314 321 322 322 321 321 319 321 320
317 315 315 316 316 316 316 317 317 314 314 322 326 328 328 325 323 332 331 321 313 321 321 324 321 323 325 322 323 323 323 323 322 319 312 319 319 319 319 318 319 315 314
318 318 316 316 316 317 316 317 316 315 314 314 314 315 316 324 324 327 332 326 314 322 322 322 321 324 323 322 322 322 322 322 321 316 312 313 319 320 317 317 315 312 313
318 316 315 317 317 317 318 318 316 314 313 313 313 314 314 315 322 324 330 324 314 322 322 322 321 321 321 322 321 320 320 319 318 314 312 313 313 314 313 309 308 307 306
317 317 315 318 318 319 318 318 315 314 313 313 315 317 316 312 320 323 328 320 315 322 322 322 322 321 321 321 321 318 318 318 317 315 313 314 314 312 309 307 306 306 306
317 317 314 315 317 318 317 316 315 314 313 314 316 316 317 317 315 322 324 319 315 322 322 322 321 321 321 321 321 318 315 316 316 315 314 312 311 309 307 306 305 305 305
317 317 316 315 315 316 315 315 316 314 313 314 317 316 318 318 322 322 320 316 319 322 321 321 321 321 321 321 321 318 311 312 311 312 313 312 310 309 308 306 305 306 306
317 317 317 315 313 313 313 315 315 315 315 314 315 316 317 319 321 322 321 320 323 322 321 321 321 321 320 320 319 317 314 311 310 309 309 309 308 308 307 307 306 306 306
317 316 317 315 313 313 315 315 313 314 315 315 315 315 316 316 316 317 319 322 323 323 321 321 321 319 319 319 319 317 311 309 308 309 309 309 309 309 310 308 307 307 307
316 316 317 315 313 314 314 313 313 313 314 314 315 314 315 315 317 316 316 318 322 322 321 321 319 319 318 318 319 316 311 309 309 309 309 309 310 310 310 310 309 309 309
Wind_Speed
7 7 6 7 13 13 14 14 12 16 19 18 19 18 18 17 16 15 15 14 13 13 13 13 13 13 13 12 12 10 11 13 13 15 16 15 15 14 12 13 15 16 13
7 9 6 7 3 13 14 14 13 11 16 19 19 19 18 17 17 16 15 14 13 13 13 14 14 12 12 13 14 14 14 15 15 14 14 14 14 12 13 13 14 15 15
7 6 7 8 8 13 14 15 15 13 14 16 20 19 19 17 17 17 15 13 13 13 13 14 15 15 15 15 16 16 16 15 14 14 12 12 13 12 12 15 17 17 16
9 5 1 4 7 3 14 16 16 16 16 15 18 19 19 17 16 16 15 15 14 12 13 12 14 17 18 18 18 18 17 16 15 14 11 11 11 14 19 20 18 15 14
7 9 3 5 5 5 14 16 18 18 18 17 18 17 21 18 17 16 18 19 16 12 9 10 11 16 19 19 18 18 16 14 14 14 12 17 18 18 16 14 12 10 8
11 12 11 5 7 9 5 17 18 19 20 18 17 18 20 20 18 18 21 21 19 13 8 7 11 15 19 20 21 18 16 13 12 14 14 18 17 14 12 10 6 4 3
15 11 11 8 10 14 13 10 20 20 22 20 19 18 20 22 21 22 22 24 18 14 10 8 11 15 19 22 22 18 17 16 16 14 11 12 14 11 7 5 2 0 1
16 13 6 9 9 15 16 15 15 22 22 24 23 21 21 23 23 24 25 24 18 14 11 10 12 16 20 23 23 21 20 17 16 14 10 9 11 8 4 3 0 1 3
19 20 19 17 15 15 19 20 17 21 26 26 25 24 23 25 26 25 25 25 20 16 14 12 14 18 21 24 24 21 18 16 14 12 10 9 8 5 3 4 4 10 13
22 21 16 15 14 18 18 22 22 19 25 27 26 25 26 27 27 24 24 25 23 19 17 15 17 20 22 23 24 22 19 16 15 14 14 12 8 5 5 14 13 16 15
20 23 22 20 15 19 20 21 24 25 24 28 28 27 28 30 29 27 21 24 23 21 18 17 19 21 23 24 25 22 20 19 17 15 14 9 6 6 18 19 18 16 19
20 22 24 24 19 18 21 24 25 27 27 30 30 30 33 34 32 28 22 24 24 22 20 18 20 23 26 25 26 21 18 18 17 14 12 8 7 14 23 18 18 16 19
19 22 25 27 23 19 21 24 27 26 30 31 33 33 34 35 33 30 24 26 25 22 22 21 23 24 29 27 27 22 21 18 16 13 12 10 13 17 21 15 17 14 15
22 23 24 26 26 21 20 23 28 28 27 32 34 35 36 38 37 32 28 27 26 26 25 26 25 25 30 27 26 23 21 16 15 14 8 15 18 18 18 15 13 16 13
22 20 23 26 25 23 21 23 25 27 26 30 34 36 37 41 40 34 31 28 29 28 28 27 27 29 32 29 26 22 21 18 15 13 10 19 21 20 18 16 14 14 13
20 19 18 22 24 21 23 22 24 25 23 25 36 39 35 42 46 38 34 31 32 32 28 26 26 34 34 31 27 24 21 19 15 13 13 20 22 21 19 18 17 16 13
19 15 15 21 24 23 23 23 24 23 25 26 31 41 33 16 37 45 37 34 36 34 28 26 29 32 34 33 28 26 23 20 18 12 17 19 20 20 18 16 15 15 13
19 16 16 20 23 24 22 22 24 27 28 32 36 37 40 21 29 49 42 36 38 37 32 32 34 38 34 29 26 27 25 21 17 13 17 19 18 17 16 14 15 13 13
17 19 19 21 25 26 24 23 25 27 29 31 32 39 42 42 29 52 46 38 40 40 37 37 36 37 35 29 26 27 25 20 15 15 17 18 20 20 17 15 14 13 12
17 18 18 21 25 27 27 25 26 27 28 28 27 32 31 38 32 45 43 41 43 44 40 43 37 35 33 31 28 24 20 16 15 15 18 18 17 16 14 12 10 10 10
16 17 15 17 23 28 29 26 27 29 30 26 24 25 26 30 42 41 46 43 46 49 44 45 38 38 37 34 32 27 22 17 16 16 18 19 19 18 16 15 13 12 11
15 15 16 16 21 24 22 24 24 21 22 22 24 21 25 38 47 40 43 47 51 50 46 46 43 42 39 39 38 32 21 19 18 18 18 18 17 17 17 17 15 14 12
12 13 18 14 12 18 25 24 22 19 21 24 27 28 24 39 44 45 42 48 53 50 48 47 47 45 45 43 38 24 17 11 25 21 21 19 18 18 16 16 15 14 13
10 13 15 12 11 24 24 23 21 26 25 24 32 27 20 22 36 39 40 47 50 49 47 48 46 44 46 44 38 29 22 14 19 16 25 22 19 19 18 18 17 15 13
10 11 15 13 16 19 17 20 22 19 29 30 29 34 32 19 18 27 33 45 44 46 45 46 45 44 43 43 41 37 25 13 19 15 23 29 25 22 18 19 16 16 15
10 12 12 15 7 8 15 17 20 26 28 31 33 32 36 31 28 31 35 29 38 39 41 40 41 42 40 39 39 36 29 20 20 16 13 31 30 26 22 19 18 18 16
Wind_Direction
31 28 28 34 183 183 178 182 186 194 180 177 178 178 177 181 184 182 173 168 164 159 154 151 150 148 145 146 144 140 134 138 136 131 130 128 123 119 104 102 109 104 98
67 49 29 19 207 186 185 185 190 190 178 177 175 178 184 183 181 179 173 170 165 165 161 149 141 139 143 141 137 135 134 133 131 130 131 131 128 127 109 106 112 114 102
79 68 19 11 13 200 192 194 194 190 180 182 184 181 181 181 180 178 176 174 171 166 165 160 152 151 146 138 138 135 131 128 128 128 130 131 122 122 114 116 117 114 115
29 53 28 331 350 257 201 195 200 198 192 190 189 189 189 186 184 181 177 165 155 153 148 154 161 161 150 142 136 133 128 125 126 124 128 140 126 122 123 125 126 117 111
332 353 340 244 282 313 221 205 201 204 204 201 199 196 196 191 189 187 178 168 161 157 160 156 151 161 157 150 140 144 148 140 137 135 114 127 128 131 134 133 125 114 101
301 293 297 270 229 252 248 226 208 209 211 208 210 206 201 196 192 190 182 178 171 170 174 177 166 161 161 155 156 157 149 154 158 149 140 133 133 138 143 144 138 110 122
301 314 279 277 234 236 233 242 227 215 218 217 217 209 199 197 198 197 193 182 179 181 193 201 185 169 166 162 168 162 156 156 163 167 159 159 138 150 172 161 126 198 256
296 305 293 265 263 235 240 240 238 228 221 221 220 215 206 199 199 198 193 191 193 200 209 218 197 178 170 169 172 171 169 170 172 175 178 185 187 185 193 206 103 122 116
294 298 295 285 265 254 235 242 239 235 228 220 219 216 211 205 200 196 193 201 208 215 223 225 200 183 173 176 178 176 176 175 176 187 193 190 166 167 178 139 122 110 99
291 295 302 306 264 241 244 235 237 241 231 224 220 220 216 207 199 204 203 205 214 220 227 222 199 183 175 178 183 183 179 174 180 183 183 197 211 222 187 129 116 115 113
283 287 294 297 283 245 243 240 237 234 234 228 227 223 218 206 202 212 208 206 213 223 227 213 195 179 176 181 184 185 176 181 189 185 180 204 221 170 131 124 127 125 115
282 290 292 293 290 266 243 242 239 235 232 227 227 226 219 208 210 221 216 206 215 222 223 204 189 181 183 185 184 179 176 184 184 188 199 212 160 138 132 140 137 132 133
288 281 285 289 290 277 254 244 243 239 236 230 227 227 222 212 213 224 221 209 214 213 210 191 184 186 186 190 185 178 184 185 190 196 208 176 153 143 143 146 148 136 140
287 279 276 277 283 284 265 249 245 243 240 235 229 228 223 219 216 223 220 210 211 203 208 193 187 188 185 190 187 183 190 191 193 209 200 162 140 138 144 155 165 156 153
296 282 264 266 268 278 276 261 249 247 241 237 227 228 229 227 220 223 218 209 207 199 206 195 191 188 182 186 183 181 190 193 201 221 226 159 147 152 157 162 143 143 164
302 288 264 259 261 263 278 264 251 248 244 236 215 219 200 212 223 222 216 207 202 201 203 192 187 179 180 185 187 189 191 199 208 219 209 158 154 160 161 149 150 146 141
308 291 268 256 257 264 274 262 250 241 231 228 224 213 214 231 213 222 216 208 202 198 194 187 179 176 171 183 195 192 194 198 210 218 189 158 164 164 160 158 151 145 147
303 291 275 264 268 271 274 266 257 239 236 234 234 224 226 250 238 211 212 205 201 194 188 189 177 172 181 189 185 187 190 199 213 209 191 164 159 158 157 155 152 148 146
301 293 275 270 267 268 272 272 260 247 244 247 251 247 253 248 256 210 209 204 200 192 188 186 176 183 186 188 183 184 192 198 205 198 195 180 167 167 170 163 156 155 149
300 298 285 263 260 262 267 266 256 251 251 252 247 245 258 245 256 211 207 201 198 191 190 186 186 188 194 189 180 179 184 192 202 197 191 183 178 181 183 184 178 169 166
299 297 278 271 263 259 264 261 254 257 258 249 235 241 254 232 237 214 208 199 197 190 191 188 188 189 189 194 180 164 168 182 195 193 194 196 197 198 197 195 192 189 185
297 286 276 267 262 260 264 262 255 259 245 242 230 229 231 216 224 211 209 200 194 189 190 193 189 187 192 190 188 175 156 171 189 198 199 199 201 201 199 200 199 199 195
300 291 277 264 271 271 260 258 254 243 240 227 221 214 209 207 205 205 203 196 190 190 190 193 194 195 190 190 197 182 158 188 183 195 208 211 213 209 206 204 203 202 203
290 293 287 243 263 289 265 253 254 248 240 234 223 205 201 196 188 202 203 200 193 191 194 194 197 203 198 192 194 198 195 197 182 189 206 212 218 215 212 210 209 209 210
288 295 294 237 317 293 257 249 254 266 251 234 245 227 218 206 187 215 210 199 199 194 195 194 201 203 205 201 198 199 203 199 193 187 197 203 210 213 215 217 216 216 216
300 283 284 234 338 319 267 255 251 242 267 256 240 220 207 215 197 197 212 207 198 199 200 202 205 206 208 211 208 206 210 200 197 199 200 205 207 208 211 214 220 224 225